N390TC KJFK-KJFK

Flight info

Callsign N390TC
Flight time 0h 2m
Altitude
Route CLOSED TRR
Aircraft PA28/L-VGD/C

Departure

Time 2026-05-04 19:02
Airport John F. Kennedy International Airport (KJFK)

Arrival

Time 2026-05-04 19:04
Airport John F. Kennedy International Airport (KJFK)
Time Latitude Longitude Altitude Speed Heading
2026-05-04 18:47 40.64915 -73.81106 18 ft 0 kts 294°
2026-05-04 18:47 40.64923 -73.81119 18 ft 5 kts 313°
2026-05-04 18:48 40.64952 -73.81156 17 ft 6 kts 311°
2026-05-04 18:48 40.64946 -73.81197 17 ft 3 kts 233°
2026-05-04 18:48 40.64926 -73.81216 18 ft 6 kts 195°
2026-05-04 18:48 40.64887 -73.81187 19 ft 8 kts 118°
2026-05-04 18:49 40.64857 -73.81116 19 ft 10 kts 120°
2026-05-04 18:49 40.64818 -73.81030 19 ft 11 kts 122°
2026-05-04 18:49 40.64779 -73.80941 21 ft 11 kts 121°
2026-05-04 18:49 40.64741 -73.80860 20 ft 10 kts 122°
2026-05-04 18:50 40.64698 -73.80767 18 ft 14 kts 120°
2026-05-04 18:50 40.64646 -73.80651 17 ft 15 kts 121°
2026-05-04 18:50 40.64588 -73.80524 15 ft 17 kts 122°
2026-05-04 18:50 40.64524 -73.80386 14 ft 17 kts 120°
2026-05-04 18:51 40.64473 -73.80263 16 ft 14 kts 121°
2026-05-04 18:51 40.64424 -73.80161 15 ft 13 kts 121°
2026-05-04 18:51 40.64384 -73.80072 17 ft 10 kts 121°
2026-05-04 18:51 40.64356 -73.80011 18 ft 6 kts 121°
2026-05-04 18:52 40.64334 -73.79963 19 ft 8 kts 122°
2026-05-04 18:52 40.64283 -73.79882 20 ft 14 kts 136°
2026-05-04 18:52 40.64208 -73.79787 20 ft 14 kts 128°
2026-05-04 18:52 40.64194 -73.79758 21 ft 0 kts 122°
2026-05-04 18:54 40.64178 -73.79746 21 ft 11 kts 181°
2026-05-04 18:54 40.64133 -73.79819 20 ft 11 kts 166°
2026-05-04 18:55 40.64092 -73.79748 20 ft 10 kts 119°
2026-05-04 18:55 40.63991 -73.79528 17 ft 16 kts 122°
2026-05-04 18:55 40.63933 -73.79400 16 ft 17 kts 121°
2026-05-04 18:56 40.63873 -73.79268 15 ft 16 kts 120°
2026-05-04 18:56 40.63823 -73.79154 17 ft 13 kts 119°
2026-05-04 18:56 40.63779 -73.79055 17 ft 13 kts 121°
2026-05-04 18:56 40.63737 -73.78957 18 ft 12 kts 121°
2026-05-04 18:57 40.63699 -73.78877 21 ft 9 kts 121°
2026-05-04 18:57 40.63668 -73.78806 20 ft 10 kts 121°
2026-05-04 18:57 40.63622 -73.78712 21 ft 15 kts 121°
2026-05-04 18:57 40.63561 -73.78580 22 ft 18 kts 122°
2026-05-04 18:58 40.63492 -73.78431 21 ft 21 kts 121°
2026-05-04 18:58 40.63423 -73.78271 20 ft 17 kts 118°
2026-05-04 18:58 40.63368 -73.78149 20 ft 14 kts 121°
2026-05-04 18:58 40.63330 -73.78035 19 ft 13 kts 99°
2026-05-04 18:59 40.63334 -73.77925 20 ft 12 kts 77°
2026-05-04 18:59 40.63376 -73.77824 21 ft 13 kts 45°
2026-05-04 18:59 40.63450 -73.77753 20 ft 14 kts 27°
2026-05-04 18:59 40.63541 -73.77681 16 ft 16 kts 31°
2026-05-04 19:00 40.63630 -73.77611 15 ft 11 kts 44°
2026-05-04 19:00 40.63631 -73.77580 15 ft 0 kts 122°
2026-05-04 19:01 40.63619 -73.77560 16 ft 15 kts 131°
2026-05-04 19:01 40.63439 -73.77588 19 ft 47 kts 210°
2026-05-04 19:01 40.63084 -73.77887 151 ft 67 kts 207°
2026-05-04 19:02 40.62656 -73.78015 424 ft 69 kts 150°
2026-05-04 19:02 40.62447 -73.77411 740 ft 79 kts 122°
2026-05-04 19:02 40.62262 -73.76657 910 ft 93 kts 117°
2026-05-04 19:02 40.62144 -73.75780 985 ft 110 kts 82°
2026-05-04 19:03 40.62607 -73.74927 962 ft 126 kts 41°
2026-05-04 19:03 40.63309 -73.74154 947 ft 133 kts 37°
2026-05-04 19:03 40.64065 -73.73543 1084 ft 114 kts
2026-05-04 19:03 40.64718 -73.73767 1048 ft 95 kts 307°
2026-05-04 19:04 40.65108 -73.74395 763 ft 86 kts 279°
2026-05-04 19:04 40.65063 -73.75098 413 ft 72 kts 219°
2026-05-04 19:04 40.64682 -73.75367 184 ft 59 kts 205°
2026-05-04 19:04 40.64360 -73.75616 39 ft 47 kts 207°
2026-05-04 19:05 40.64111 -73.75805 20 ft 49 kts 210°
2026-05-04 19:05 40.63725 -73.76120 129 ft 74 kts 208°
2026-05-04 19:05 40.63260 -73.76481 338 ft 81 kts 205°
2026-05-04 19:05 40.62743 -73.76838 562 ft 86 kts 205°
2026-05-04 19:06 40.62194 -73.77181 752 ft 90 kts 202°
2026-05-04 19:06 40.61601 -73.77503 925 ft 96 kts 203°
2026-05-04 19:06 40.60960 -73.77821 1076 ft 99 kts 203°
2026-05-04 19:06 40.60310 -73.78126 1113 ft 101 kts 200°
2026-05-04 19:07 40.59631 -73.78249 1094 ft 108 kts 161°
2026-05-04 19:07 40.59128 -73.77392 1011 ft 124 kts 119°
2026-05-04 19:07 40.58840 -73.76387 1092 ft 119 kts 94°
2026-05-04 19:07 40.59202 -73.75392 965 ft 130 kts 52°
2026-05-04 19:08 40.59802 -73.74524 1012 ft 126 kts 46°
2026-05-04 19:08 40.60442 -73.73835 1175 ft 113 kts 32°
2026-05-04 19:08 40.60985 -73.73135 1244 ft 113 kts 66°
2026-05-04 19:08 40.61036 -73.72134 1250 ft 108 kts 117°
2026-05-04 19:09 40.60510 -73.71517 1160 ft 103 kts 173°
2026-05-04 19:09 40.59874 -73.71807 1107 ft 100 kts 227°
2026-05-04 19:09 40.59754 -73.72688 1131 ft 106 kts 282°
2026-05-04 19:09 40.60299 -73.73377 1130 ft 118 kts 337°
2026-05-04 19:10 40.61137 -73.73317 1094 ft 127 kts 19°
2026-05-04 19:10 40.61898 -73.72769 1187 ft 122 kts 24°
2026-05-04 19:10 40.62705 -73.72301 1206 ft 127 kts 20°
2026-05-04 19:10 40.63475 -73.71795 1247 ft 111 kts 24°
2026-05-04 19:11 40.64098 -73.71362 1229 ft 102 kts 25°
2026-05-04 19:11 40.64719 -73.70898 1187 ft 105 kts 27°
2026-05-04 19:11 40.65399 -73.70690 1143 ft 97 kts 328°
2026-05-04 19:11 40.65847 -73.71202 1107 ft 80 kts 289°
2026-05-04 19:12 40.66112 -73.71831 1058 ft 76 kts 287°
2026-05-04 19:12 40.66548 -73.73011 1141 ft 69 kts 281°
2026-05-04 19:12 40.66491 -73.73636 1008 ft 74 kts 237°
2026-05-04 19:13 40.66169 -73.74179 793 ft 74 kts 217°
2026-05-04 19:13 40.65771 -73.74518 570 ft 62 kts 204°
2026-05-04 19:13 40.65430 -73.74806 416 ft 55 kts 204°
2026-05-04 19:13 40.65096 -73.75040 288 ft 52 kts 207°
2026-05-04 19:14 40.64792 -73.75290 154 ft 51 kts 212°
2026-05-04 19:14 40.64484 -73.75512 62 ft 50 kts 207°
2026-05-04 19:14 40.64209 -73.75743 22 ft 41 kts 205°
2026-05-04 19:14 40.63902 -73.75974 43 ft 67 kts 208°
2026-05-04 19:15 40.63465 -73.76316 229 ft 77 kts 202°
2026-05-04 19:15 40.62993 -73.76143 510 ft 85 kts 139°
2026-05-04 19:15 40.62658 -73.75431 718 ft 94 kts 130°
2026-05-04 19:15 40.62493 -73.74578 967 ft 113 kts 71°
2026-05-04 19:16 40.63148 -73.73832 994 ft 133 kts 33°
2026-05-04 19:16 40.63897 -73.73219 1141 ft 120 kts 30°
2026-05-04 19:16 40.64560 -73.72719 1274 ft 102 kts 26°
2026-05-04 19:16 40.65204 -73.72261 1224 ft 105 kts 24°
2026-05-04 19:17 40.65860 -73.71959 1217 ft 93 kts 338°
2026-05-04 19:17 40.66316 -73.72364 1289 ft 73 kts 295°
2026-05-04 19:17 40.66614 -73.72891 1270 ft 74 kts 288°
2026-05-04 19:17 40.66612 -73.73471 1085 ft 72 kts 229°
2026-05-04 19:18 40.66275 -73.74015 884 ft 78 kts 221°
2026-05-04 19:18 40.65897 -73.74439 668 ft 63 kts 211°
2026-05-04 19:18 40.65559 -73.74719 519 ft 52 kts 204°
2026-05-04 19:18 40.65252 -73.74948 375 ft 51 kts 206°
2026-05-04 19:19 40.64938 -73.75157 226 ft 51 kts 213°
2026-05-04 19:19 40.64610 -73.75388 147 ft 60 kts 207°
2026-05-04 19:19 40.64219 -73.75733 225 ft 79 kts 206°
2026-05-04 19:19 40.63734 -73.76102 447 ft 81 kts 207°
2026-05-04 19:20 40.63221 -73.76466 693 ft 87 kts 200°
2026-05-04 19:20 40.62656 -73.76237 1011 ft 99 kts 136°
2026-05-04 19:20 40.62392 -73.75326 1172 ft 116 kts 97°
2026-05-04 19:20 40.62872 -73.74493 1093 ft 129 kts 21°
2026-05-04 19:21 40.63706 -73.73952 1008 ft 128 kts 24°
2026-05-04 19:21 40.64407 -73.73672 1040 ft 95 kts 328°
2026-05-04 19:21 40.64797 -73.74267 728 ft 87 kts 274°
2026-05-04 19:21 40.64778 -73.74989 413 ft 74 kts 239°
2026-05-04 19:22 40.64513 -73.75507 88 ft 63 kts 206°
2026-05-04 19:22 40.64196 -73.75727 22 ft 41 kts 211°
2026-05-04 19:22 40.63868 -73.76006 93 ft 68 kts 207°
2026-05-04 19:22 40.63431 -73.76338 302 ft 77 kts 207°
2026-05-04 19:23 40.62972 -73.76704 624 ft 76 kts 201°
2026-05-04 19:23 40.62513 -73.76375 886 ft 95 kts 122°
2026-05-04 19:23 40.62165 -73.75542 981 ft 113 kts 118°
2026-05-04 19:23 40.62477 -73.74522 916 ft 144 kts 34°
2026-05-04 19:24 40.63045 -73.74126 909 ft 132 kts 26°
2026-05-04 19:24 40.63780 -73.73683 1092 ft 99 kts 24°
2026-05-04 19:24 40.64404 -73.73563 982 ft 88 kts 330°
2026-05-04 19:24 40.64800 -73.74087 751 ft 86 kts 290°
2026-05-04 19:25 40.64909 -73.74805 410 ft 75 kts 253°
2026-05-04 19:25 40.64685 -73.75315 163 ft 59 kts 224°
2026-05-04 19:25 40.64394 -73.75586 28 ft 43 kts 207°
2026-05-04 19:25 40.64142 -73.75782 22 ft 56 kts 209°
2026-05-04 19:26 40.63755 -73.76090 185 ft 72 kts 206°
2026-05-04 19:26 40.63325 -73.76446 491 ft 72 kts 208°
2026-05-04 19:26 40.62855 -73.76692 739 ft 85 kts 169°
2026-05-04 19:26 40.62447 -73.76013 961 ft 106 kts 122°
2026-05-04 19:27 40.62321 -73.75039 923 ft 125 kts 66°
2026-05-04 19:27 40.62999 -73.74339 953 ft 124 kts 24°
2026-05-04 19:27 40.63759 -73.73859 1071 ft 119 kts 23°
2026-05-04 19:27 40.64521 -73.73533 1042 ft 104 kts 344°
2026-05-04 19:28 40.64943 -73.74056 776 ft 80 kts 271°
2026-05-04 19:28 40.64954 -73.74745 496 ft 69 kts 244°
2026-05-04 19:28 40.64755 -73.75246 255 ft 57 kts 218°
2026-05-04 19:28 40.64458 -73.75538 39 ft 46 kts 209°
2026-05-04 19:29 40.64247 -73.75691 21 ft 30 kts 212°
2026-05-04 19:29 40.63944 -73.75922 67 ft 65 kts 208°
2026-05-04 19:29 40.63527 -73.76256 262 ft 75 kts 208°
2026-05-04 19:29 40.63087 -73.76639 582 ft 77 kts 205°
2026-05-04 19:30 40.62587 -73.76563 859 ft 92 kts 137°
2026-05-04 19:30 40.62326 -73.75734 1060 ft 100 kts 110°
2026-05-04 19:30 40.62619 -73.74797 1005 ft 125 kts 45°
2026-05-04 19:30 40.63364 -73.74205 1028 ft 126 kts 25°
2026-05-04 19:31 40.64083 -73.73709 1181 ft 100 kts 13°
2026-05-04 19:31 40.64647 -73.73982 903 ft 92 kts 306°
2026-05-04 19:31 40.64967 -73.74660 594 ft 83 kts 261°
2026-05-04 19:31 40.64760 -73.75269 285 ft 71 kts 216°
2026-05-04 19:32 40.64398 -73.75578 71 ft 52 kts 207°
2026-05-04 19:32 40.64138 -73.75786 21 ft 37 kts 209°
2026-05-04 19:32 40.63808 -73.76060 93 ft 68 kts 211°
2026-05-04 19:32 40.63455 -73.76431 445 ft 62 kts 213°
2026-05-04 19:33 40.63067 -73.76754 696 ft 76 kts 180°
2026-05-04 19:33 40.62629 -73.76193 844 ft 105 kts 124°
2026-05-04 19:33 40.62329 -73.75287 1022 ft 112 kts 93°
2026-05-04 19:33 40.62765 -73.74389 926 ft 129 kts 33°
2026-05-04 19:34 40.63561 -73.73816 905 ft 128 kts 27°
2026-05-04 19:34 40.64311 -73.73649 817 ft 102 kts 323°
2026-05-04 19:34 40.64682 -73.74324 628 ft 84 kts 276°
2026-05-04 19:34 40.64738 -73.75037 403 ft 73 kts 249°
2026-05-04 19:35 40.64476 -73.75529 114 ft 59 kts 205°
2026-05-04 19:35 40.64176 -73.75754 22 ft 40 kts 210°
2026-05-04 19:35 40.63889 -73.75976 32 ft 65 kts 208°
2026-05-04 19:35 40.63461 -73.76313 212 ft 77 kts 206°
2026-05-04 19:36 40.62981 -73.76670 496 ft 81 kts 206°
2026-05-04 19:36 40.62449 -73.76747 750 ft 92 kts 147°
2026-05-04 19:36 40.62137 -73.75917 923 ft 110 kts 117°
2026-05-04 19:36 40.62159 -73.74929 983 ft 119 kts 50°
2026-05-04 19:37 40.62875 -73.74357 907 ft 124 kts 27°
2026-05-04 19:37 40.63617 -73.73854 970 ft 115 kts 26°
2026-05-04 19:37 40.64303 -73.73698 884 ft 94 kts 330°
2026-05-04 19:37 40.64741 -73.74322 630 ft 90 kts 296°
2026-05-04 19:38 40.64978 -73.74977 443 ft 67 kts 244°
2026-05-04 19:38 40.64719 -73.75347 204 ft 54 kts 202°
2026-05-04 19:38 40.64411 -73.75568 23 ft 42 kts 206°
2026-05-04 19:38 40.64116 -73.75803 40 ft 66 kts 209°
2026-05-04 19:39 40.63696 -73.76132 260 ft 74 kts 206°
2026-05-04 19:39 40.63250 -73.76498 483 ft 78 kts 199°
2026-05-04 19:39 40.62680 -73.76492 633 ft 88 kts 178°
2026-05-04 19:39 40.62021 -73.76424 654 ft 100 kts 178°
2026-05-04 19:40 40.61323 -73.76357 718 ft 101 kts 178°
2026-05-04 19:40 40.60622 -73.76308 837 ft 103 kts 179°
2026-05-04 19:40 40.59882 -73.76255 955 ft 109 kts 179°
2026-05-04 19:40 40.59180 -73.75964 1037 ft 107 kts 142°
2026-05-04 19:41 40.58951 -73.75014 845 ft 118 kts 97°
2026-05-04 19:41 40.59207 -73.73969 812 ft 123 kts 54°
2026-05-04 19:41 40.59943 -73.73461 865 ft 116 kts
2026-05-04 19:41 40.60503 -73.73965 933 ft 92 kts 275°
2026-05-04 19:42 40.60378 -73.74665 934 ft 85 kts 219°
2026-05-04 19:42 40.59839 -73.75054 966 ft 91 kts 201°
2026-05-04 19:42 40.59188 -73.75172 957 ft 102 kts 182°
2026-05-04 19:42 40.58559 -73.74826 971 ft 104 kts 142°
2026-05-04 19:43 40.58197 -73.73963 855 ft 115 kts 112°
2026-05-04 19:43 40.58338 -73.72907 710 ft 129 kts 56°
2026-05-04 19:43 40.59149 -73.72525 699 ft 131 kts 359°
2026-05-04 19:43 40.60007 -73.72709 741 ft 117 kts 332°
2026-05-04 19:44 40.60546 -73.73368 799 ft 101 kts 287°
2026-05-04 19:44 40.60681 -73.74188 840 ft 88 kts 252°
2026-05-04 19:44 40.60398 -73.74870 848 ft 85 kts 223°
2026-05-04 19:44 40.59920 -73.75281 928 ft 87 kts 202°
2026-05-04 19:45 40.59293 -73.75392 968 ft 95 kts 181°
2026-05-04 19:45 40.58659 -73.75154 969 ft 98 kts 159°
2026-05-04 19:45 40.58204 -73.74448 941 ft 107 kts 122°
2026-05-04 19:45 40.58135 -73.73419 797 ft 122 kts 82°
2026-05-04 19:46 40.58675 -73.72605 810 ft 121 kts 22°
2026-05-04 19:46 40.59472 -73.72672 793 ft 118 kts 330°
2026-05-04 19:46 40.60182 -73.73225 700 ft 122 kts 321°
2026-05-04 19:46 40.60908 -73.73836 626 ft 124 kts 321°
2026-05-04 19:47 40.61643 -73.74445 714 ft 128 kts 321°
2026-05-04 19:47 40.62433 -73.75005 833 ft 134 kts 342°
2026-05-04 19:47 40.63324 -73.74731 945 ft 129 kts 32°
2026-05-04 19:47 40.64014 -73.74106 1081 ft 109 kts 37°
2026-05-04 19:48 40.64578 -73.73494 1026 ft 104 kts 40°
2026-05-04 19:48 40.65178 -73.73153 1022 ft 94 kts 331°
2026-05-04 19:48 40.65511 -73.73757 904 ft 81 kts 275°
2026-05-04 19:48 40.65551 -73.74470 678 ft 77 kts 236°
2026-05-04 19:49 40.65242 -73.74907 497 ft 58 kts 213°
2026-05-04 19:49 40.64952 -73.75178 309 ft 46 kts 200°
2026-05-04 19:49 40.64667 -73.75387 119 ft 49 kts 204°
2026-05-04 19:49 40.64385 -73.75594 31 ft 39 kts 205°
2026-05-04 19:50 40.64187 -73.75750 22 ft 39 kts 209°
2026-05-04 19:50 40.63857 -73.76011 183 ft 58 kts 207°
2026-05-04 19:50 40.63490 -73.76318 446 ft 64 kts 209°
2026-05-04 19:50 40.63079 -73.76294 704 ft 85 kts 129°
2026-05-04 19:51 40.62992 -73.75423 860 ft 105 kts 104°
2026-05-04 19:51 40.63091 -73.74416 916 ft 129 kts 53°
2026-05-04 19:51 40.63711 -73.73581 913 ft 117 kts 39°
2026-05-04 19:51 40.64414 -73.73750 531 ft 113 kts 300°
2026-05-04 19:52 40.64849 -73.74494 388 ft 95 kts 292°
2026-05-04 19:52 40.64942 -73.75138 228 ft 59 kts 212°
2026-05-04 19:52 40.64634 -73.75429 89 ft 59 kts 201°
2026-05-04 19:52 40.64267 -73.75675 45 ft 57 kts 209°
2026-05-04 19:53 40.63977 -73.75913 19 ft 40 kts 201°
2026-05-04 19:53 40.63778 -73.76053 14 ft 34 kts 211°
2026-05-04 19:53 40.63456 -73.76318 96 ft 66 kts 208°
2026-05-04 19:53 40.62998 -73.76524 311 ft 76 kts 166°
2026-05-04 19:54 40.62594 -73.76011 593 ft 89 kts 143°
2026-05-04 19:54 40.62589 -73.75169 798 ft 117 kts 59°
2026-05-04 19:54 40.63289 -73.74590 1054 ft 120 kts 17°
2026-05-04 19:54 40.64064 -73.74153 1045 ft 124 kts 22°
2026-05-04 19:55 40.64733 -73.73650 1062 ft 106 kts 31°
2026-05-04 19:55 40.65375 -73.73378 1052 ft 96 kts 331°
2026-05-04 19:55 40.65657 -73.74076 874 ft 86 kts 262°
2026-05-04 19:55 40.65439 -73.74666 680 ft 69 kts 219°
2026-05-04 19:56 40.65102 -73.75018 374 ft 59 kts 208°
2026-05-04 19:56 40.64793 -73.75283 128 ft 51 kts 206°
2026-05-04 19:56 40.64493 -73.75517 57 ft 45 kts 205°
2026-05-04 19:56 40.64274 -73.75684 21 ft 28 kts 206°
2026-05-04 19:57 40.64101 -73.75814 19 ft 32 kts 210°
2026-05-04 19:57 40.63900 -73.75975 16 ft 31 kts 211°
2026-05-04 19:57 40.63730 -73.76107 16 ft 24 kts 210°
2026-05-04 19:57 40.63593 -73.76215 17 ft 23 kts 210°
2026-05-04 19:58 40.63457 -73.76320 19 ft 21 kts 209°
2026-05-04 19:58 40.63346 -73.76423 16 ft 21 kts 222°
2026-05-04 19:58 40.63267 -73.76563 16 ft 18 kts 240°
2026-05-04 19:58 40.63236 -73.76711 13 ft 17 kts 287°
2026-05-04 19:59 40.63290 -73.76835 15 ft 14 kts 301°
2026-05-04 19:59 40.63343 -73.76955 16 ft 19 kts 296°
2026-05-04 19:59 40.63415 -73.77109 18 ft 19 kts 300°
2026-05-04 19:59 40.63479 -73.77250 19 ft 18 kts 300°
2026-05-04 20:00 40.63541 -73.77386 18 ft 16 kts 301°
2026-05-04 20:00 40.63598 -73.77507 17 ft 15 kts 300°
2026-05-04 20:00 40.63637 -73.77601 15 ft 8 kts 282°
2026-05-04 20:00 40.63666 -73.77659 15 ft 7 kts 279°
2026-05-04 20:01 40.63649 -73.77713 15 ft 6 kts 219°
2026-05-04 20:01 40.63601 -73.77752 15 ft 9 kts 211°
2026-05-04 20:01 40.63554 -73.77787 16 ft 7 kts 212°
2026-05-04 20:01 40.63523 -73.77813 17 ft 4 kts 212°
2026-05-04 20:02 40.63504 -73.77829 18 ft 2 kts 210°
2026-05-04 20:02 40.63486 -73.77842 18 ft 9 kts 208°
2026-05-04 20:02 40.63425 -73.77911 19 ft 13 kts 239°
2026-05-04 20:02 40.63410 -73.78030 18 ft 14 kts 283°
2026-05-04 20:03 40.63455 -73.78149 20 ft 15 kts 300°
2026-05-04 20:03 40.63512 -73.78274 20 ft 17 kts 300°
2026-05-04 20:03 40.63574 -73.78407 23 ft 17 kts 301°
2026-05-04 20:03 40.63640 -73.78560 24 ft 21 kts 305°
2026-05-04 20:04 40.63716 -73.78717 24 ft 19 kts 304°
2026-05-04 20:04 40.63787 -73.78873 21 ft 21 kts 300°
2026-05-04 20:04 40.63866 -73.79045 18 ft 22 kts 301°
2026-05-04 20:04 40.63948 -73.79227 15 ft 24 kts 301°
2026-05-04 20:05 40.64031 -73.79411 17 ft 23 kts 300°
2026-05-04 20:05 40.64112 -73.79585 19 ft 22 kts 302°
2026-05-04 20:05 40.64187 -73.79750 21 ft 20 kts 303°
2026-05-04 20:05 40.64285 -73.79885 20 ft 20 kts 315°
2026-05-04 20:06 40.64365 -73.80032 18 ft 20 kts 304°
2026-05-04 20:06 40.64440 -73.80193 16 ft 20 kts 301°
2026-05-04 20:06 40.64510 -73.80351 14 ft 20 kts 301°
2026-05-04 20:06 40.64581 -73.80506 15 ft 19 kts 302°
2026-05-04 20:07 40.64644 -73.80644 17 ft 17 kts 300°
2026-05-04 20:07 40.64702 -73.80772 18 ft 15 kts 301°
2026-05-04 20:07 40.64750 -73.80879 21 ft 12 kts 301°
2026-05-04 20:07 40.64794 -73.80975 20 ft 12 kts 299°
2026-05-04 20:08 40.64839 -73.81075 19 ft 13 kts 300°
2026-05-04 20:08 40.64880 -73.81166 19 ft 7 kts 297°
2026-05-04 20:08 40.64915 -73.81211 18 ft 10 kts 359°
2026-05-04 20:08 40.64959 -73.81138 17 ft 11 kts 93°
2026-05-04 20:09 40.64923 -73.81092 17 ft 5 kts 205°
2026-05-04 20:09 40.64916 -73.81097 18 ft 0 kts 206°